logo
Search for airport 
image banner adimage banner adimage banner ad
image banner ad

LOAI - Wr. Neustadt Kh

Located in District Wiener Neustadt(Stadt), Austria

ICAO - , IATA -

Data provided by Airmate  

General information

Coordinates: N47°48'57" E16°14'50"
Elevation is 920 feet MSL.
 
View others Airports in Lower Austria

Operational data

Special qualification required
Current time UTC:
Current local time:
Weather at : LOAN - Wr. Neustadt/Ost ( 3 km )
METAR: LOAN 290800Z 33014KT 9999 FEW035
TAF: TAF LOAN 290815Z 2909/2918 34012KT 9999 FEW050 BECMG 2916/2918 VRB03KT
View NOTAMs / SUP AIP / TFR affecting this airport [VIEW]
Communications frequencies: [VIEW]

Runways:

Airport contact information

Address: District Wiener Neustadt(Stadt) Austria

Satellite view of LOAI